Location: Ridgway Nature & Science Center
(38.1460°N, 107.7553°W)
Time: 12:55:49
(UTC-07:00)

Hubble Space Telescope - Pass Details

Date: 28 October 2021
Orbit: 534 x 538 km, 28.5° (Epoch: 06 December)

Event Time Altitude Azimuth Distance (km) Brightness Sun altitude
Rises 20:39:05 0° 232° (SW) 2,654 5.0 -28.7°
Reaches altitude 10° 20:41:54 10° 213° (SSW) 1,766 3.7 -29.3°
Enters shadow 20:42:05 11° 211° (SSW) 1,718 3.6 -29.3°
